New York JFK, NY

11:30 PM EDT on October 20, 2017 (GMT -0400)
Kennedy International

Weather History for KJFK - March, 2014

Change the Weather History Date:

Thursday, March 13, 2014

  Actual Average Record
Temperature  
Mean Temperature 26 °F 41 °F  
Max Temperature 34 °F 48 °F 85 °F (1990)
Min Temperature 19 °F 33 °F 19 °F (2014)
Degree Days  
Heating Degree Days 40 24  
Month to date heating degree days 336  
Since 1 July heating degree days 3847  
Cooling Degree Days 0 0  
Month to date cooling degree days 0  
Year to date cooling degree days 0  
Moisture  
Dew Point 3 °F    
Average Humidity 37    
Maximum Humidity 75    
Minimum Humidity 11    
Precipitation  
Precipitation 0.00 in 0.11 in 2.38 in (1993)
Month to date precipitation 1.45  
Year to date precipitation 7.20  
Snow  
Snow 0.00 in 0.10 in 9.00 in (1993)
Month to date snowfall 2.1  
Since 1 July snowfall 21.6  
Snow Depth -    
Sea Level Pressure  
Sea Level Pressure 29.62 in    
Wind  
Wind Speed 29 mph (NW)    
Max Wind Speed 34 mph    
Max Gust Speed 51 mph    
Visibility 10 miles    
Events      
T = Trace of Precipitation, MM = Missing Value Source: NWS Daily Summary

Daily Weather History Graph

Daily Weather History Graph

Search for Another Location

Airport or City:

Trip Planner

Search our weather history database for the weather conditions in past years. The results will help you decide how hot, cold, wet, or windy it might be!

Date:

Astronomy

Mar. 13, 2014 Rise Set
Actual Time 7:10 AM EDT 6:59 PM EDT
Civil Twilight 6:42 AM EDT 7:26 PM EDT
Nautical Twilight 6:11 AM EDT 7:58 PM EDT
Astronomical Twilight 5:39 AM EDT 8:30 PM EDT
Moon 4:22 PM EDT (3/13) 5:16 AM EDT (3/13)
Length of Visible Light 12h 44m
Length of Day
11h 49m
Waxing Gibbous, 91% of the Moon is Illuminated
Mar 13
Waxing Gibbous
Mar 16
Full
Mar 23
Last Quarter
Mar 30
New
Apr 7
First Quarter

Hourly Weather History & Observations

Time (EDT) Temp. Windchill Dew Point Humidity Pressure Visibility Wind Dir Wind Speed Gust Speed Precip Events Conditions
12:08 AM 37.4 °F 25.2 °F 30.2 °F 75% 29.15 in 10.0 mi NW 28.8 mph 36.8 mph N/A   Overcast
12:51 AM 35.1 °F 22.2 °F 25.0 °F 67% 29.19 in 10.0 mi NW 27.6 mph 38.0 mph N/A   Overcast
1:51 AM 30.9 °F 16.4 °F 19.0 °F 61% 29.22 in 10.0 mi NW 28.8 mph 40.3 mph N/A   Overcast
2:05 AM 30.2 °F 15.7 °F 17.6 °F 60% 29.23 in 10.0 mi WNW 27.6 mph 40.3 mph N/A   Overcast
2:51 AM 27.0 °F 10.5 °F 14.0 °F 58% 29.26 in 10.0 mi WNW 31.1 mph 40.3 mph N/A   Overcast
3:51 AM 25.0 °F 8.1 °F 10.0 °F 53% 29.30 in 10.0 mi NW 29.9 mph 38.0 mph N/A   Overcast
4:51 AM 23.0 °F 5.4 °F 7.0 °F 50% 29.37 in 10.0 mi NW 29.9 mph 36.8 mph N/A   Overcast
5:51 AM 21.0 °F 1.9 °F 3.9 °F 48% 29.42 in 10.0 mi NW 33.4 mph 44.9 mph N/A   Overcast
6:51 AM 19.9 °F 2.2 °F 3.0 °F 48% 29.46 in 10.0 mi WNW 26.5 mph 36.8 mph N/A   Mostly Cloudy
7:51 AM 19.0 °F 0.0 °F 1.0 °F 46% 29.52 in 10.0 mi NW 29.9 mph 44.9 mph N/A   Mostly Cloudy
8:51 AM 21.0 °F 1.7 °F 1.9 °F 44% 29.56 in 10.0 mi WNW 34.5 mph 47.2 mph N/A   Mostly Cloudy
9:51 AM 21.9 °F 4.2 °F 1.0 °F 40% 29.60 in 10.0 mi NW 28.8 mph 50.6 mph N/A   Mostly Cloudy
10:51 AM 23.0 °F 4.6 °F -0.0 °F 37% 29.62 in 10.0 mi NW 33.4 mph 44.9 mph N/A   Mostly Cloudy
11:51 AM 25.0 °F 9.9 °F 1.9 °F 37% 29.64 in 10.0 mi WNW 23.0 mph 36.8 mph N/A   Mostly Cloudy
12:51 PM 26.1 °F 9.3 °F 1.0 °F 34% 29.67 in 10.0 mi WNW 31.1 mph 41.4 mph N/A   Mostly Cloudy
1:51 PM 28.0 °F 12.5 °F 1.9 °F 33% 29.69 in 10.0 mi WNW 28.8 mph 40.3 mph N/A   Mostly Cloudy
2:51 PM 28.9 °F 14.0 °F -0.9 °F 28% 29.70 in 10.0 mi NW 27.6 mph 39.1 mph N/A   Scattered Clouds
3:51 PM 30.0 °F 15.7 °F -4.0 °F 23% 29.73 in 10.0 mi NW 26.5 mph 39.1 mph N/A   Scattered Clouds
4:51 PM 30.0 °F 14.7 °F -4.0 °F 23% 29.77 in 10.0 mi NW 31.1 mph 39.1 mph N/A   Scattered Clouds
5:51 PM 28.0 °F 11.8 °F -6.0 °F 23% 29.82 in 10.0 mi NW 32.2 mph 39.1 mph N/A   Scattered Clouds
6:51 PM 26.1 °F 9.8 °F -7.1 °F 23% 29.88 in 10.0 mi NW 28.8 mph 39.1 mph N/A   Scattered Clouds
7:51 PM 25.0 °F 8.6 °F -6.0 °F 26% 29.94 in 10.0 mi NW 27.6 mph 33.4 mph N/A   Partly Cloudy
8:51 PM 25.0 °F 9.9 °F -7.1 °F 24% 29.98 in 10.0 mi NW 23.0 mph 34.5 mph N/A   Partly Cloudy
9:51 PM 24.1 °F 6.4 °F -7.1 °F 25% 30.03 in 10.0 mi WNW 32.2 mph 40.3 mph N/A   Clear
10:51 PM 23.0 °F 7.6 °F -4.0 °F 31% 30.07 in 10.0 mi NW 21.9 mph 32.2 mph N/A   Clear
11:51 PM 23.0 °F 8.7 °F -2.0 °F 34% 30.09 in 10.0 mi NW 18.4 mph - N/A   Clear